This is the latest recevied weather packets stored in our database for station/object AB1AU. If no packets are shown the sender has not sent any weather packets the latest 1 day(s).
| Time | Temp. | Humidity | Pressure | Rain* | Wind** | Luminosity | Snow |
|---|---|---|---|---|---|---|---|
| 1778004678 | 24.44° C | 43% | 1005.1 hPa | 0 mm | 1.79 m/s, 195° | 341 W/m² | - |
| 1778004373 | 23.89° C | 44% | 1005.2 hPa | 0 mm | 0.89 m/s, 172° | 335 W/m² | - |
| 1778004071 | 23.89° C | 44% | 1005.3 hPa | 0 mm | 1.79 m/s, 221° | 215 W/m² | - |
| 1778003767 | 23.89° C | 45% | 1005.2 hPa | 0 mm | 2.24 m/s, 202° | 289 W/m² | - |
| 1778003463 | 23.33° C | 46% | 1005.5 hPa | 0 mm | 0.45 m/s, 232° | 230 W/m² | - |
| 1778003160 | 23.33° C | 46% | 1005.6 hPa | 0 mm | 0.89 m/s, 170° | 228 W/m² | - |
| 1778002856 | 22.78° C | 46% | 1005.8 hPa | 0 mm | 1.34 m/s, 208° | 154 W/m² | - |
| 1778002553 | 22.22° C | 48% | 1005.9 hPa | 0 mm | 1.79 m/s, 246° | 194 W/m² | - |
| 1778002250 | 22.22° C | 47% | 1005.7 hPa | 0 mm | 2.68 m/s, 166° | 153 W/m² | - |
| 1778001948 | 22.22° C | 47% | 1006 hPa | 0 mm | 3.13 m/s, 219° | 168 W/m² | - |
| 1778001645 | 22.78° C | 46% | 1005.9 hPa | 0 mm | 1.79 m/s, 152° | 152 W/m² | - |
| 1778001345 | 22.78° C | 46% | 1006 hPa | 0 mm | 4.47 m/s, 210° | 236 W/m² | - |
| 1778001042 | 22.78° C | 47% | 1006.1 hPa | 0 mm | 1.79 m/s, 205° | 281 W/m² | - |
| 1778000739 | 22.22° C | 47% | 1006 hPa | 0 mm | 2.24 m/s, 160° | 455 W/m² | - |
| 1778000435 | 22.22° C | 47% | 1006.1 hPa | 0 mm | 2.24 m/s, 214° | 311 W/m² | - |
| 1778000131 | 22.22° C | 47% | 1006.2 hPa | 0 mm | 1.79 m/s, 199° | 102 W/m² | - |
| 1777999826 | 22.22° C | 47% | 1006.5 hPa | 0 mm | 0.89 m/s, 194° | 149 W/m² | - |
| 1777999523 | 22.22° C | 46% | 1006.6 hPa | 0 mm | 2.24 m/s, 79° | 361 W/m² | - |
| 1777999221 | 22.22° C | 47% | 1006.4 hPa | 0 mm | 1.79 m/s, 196° | 206 W/m² | - |
| 1777998920 | 22.22° C | 47% | 1006.3 hPa | 0 mm | 2.68 m/s, 97° | 422 W/m² | - |
| 1777998616 | 22.78° C | 47% | 1006.6 hPa | 0 mm | 2.24 m/s, 220° | 445 W/m² | - |
| 1777998324 | 23.33° C | 45% | 1006.6 hPa | 0 mm | 2.24 m/s, 202° | 311 W/m² | - |
| 1777998011 | 22.78° C | 47% | 1006.7 hPa | 0 mm | 0.89 m/s, 178° | 466 W/m² | - |
| 1777997708 | 22.22° C | 48% | 1006.8 hPa | 0 mm | 2.24 m/s, 172° | 417 W/m² | - |
| 1777997406 | 22.22° C | 47% | 1006.8 hPa | 0 mm | 0.89 m/s, 202° | 226 W/m² | - |
* Rain latest hour (hover to see other rain measurements)
** Current wind speed in m/s (hover to see current wind gust speed)